Weather in Krymsk

Russia / Krasnodar Krai     44°56′05″N   37°59′10″E
temp.,
°C
wind,
m/s
gust,
m/s
humid.,
%
clouds,
%
prec.,
mm/h
press.,
hPa
HPBL,
m
28 november, sun
sun2800:00+15s81666100 0.0 1012506
03:00+15s91869100 0.5 1011570
06:00+14s8157393 0.1 1010429
09:00+15s9167534 0.1 1011557
12:00+16s101568100 0.0 1010780
15:00+15s9167798 0.0 1009645
18:00+15s91779100 0.6 1010915
21:00+14s10178395 1.4 1010698
29 november, mon
mon2900:00+15s10167947 0.0 1010796
03:00+14s9168393 0.0 1010575
06:00+14s8167996 0.0 1010528
09:00+16s10186847 0.0 1009706
12:00+18s111857100 0.0 1007820
15:00+19s112048100 0.1 1006946
18:00+19s122347100 0.0 1003846
21:00+17ssw91761100 0.1 1005974
30 november, tue
tue3000:00+15sw71682100 2.6 10041259
03:00+14sw81484100 6.7 10051084
06:00+12wsw61284100 2.9 1005764
09:00+12sw4108371 2.9 1007756
12:00+13ssw6107472 0.2 1005996
15:00+15ssw596336 0.5 1001876
18:00+12sse51386100 0.3 998773
21:00+11w71192100 23.0 996747
1 december, wed
wed100:00+11sw71377100 1.7 997842
03:00+7nw101289100 2.8 998828
06:00+5wnw81269100 0.4 10071239
09:00+5w597094 0.4 10111053
12:00+7w68545 0.0 10121233
15:00+8wsw46525 0.0 10111170
18:00+6ssw498699 0.9 1011971
21:00+7w4771100 1.9 1012222
2 december, thu
thu200:00+7wsw4880100 0.3 1013825
03:00+7w237490 0.5 101379
06:00+6wnw227980 0.0 101518
09:00+7ssw237622 0.1 101792
12:00+11sw69595 0.0 10171405
15:00+11sw711645 0.0 10171332
18:00+10ssw713695 0.0 1018721
21:00+10ssw8156951 0.0 1018803